Weather Roundup
Issued by NWS

Home | Current Version | Previous Version | Graphics & Text | Print | Product List | Glossary Off
Versions: 1 2 3 4 5 6 7 8 9 10 11 12 13 14 15 16 17 18 19 20 21 22 23 24 25 26 27 28 29 30 31 32 33 34 35 36 37 38 39 40 41 42 43 44 45 46 47 48 49 50

000
NZUS93 KARX 051259
HRRWXR

CURRENT HOURLY OBSERVATIONS ACROSS
MUCH OF THE UPPER MISSISSIPPI VALLEY
NATIONAL WEATHER SERVICE LA CROSSE WI
800 AM CDT SUN JUL 05 2015


...SOUTHEAST MINNESOTA...


CITY           SKY/WX    TMP DP  RH WIND       PRES   REMARKS
ROCHESTER      SUNNY     66  61  84 S10       30.01R
ROCHESTER/MAYO FAIR      66  60  81 SE6       30.00S
WINONA         SUNNY     70  59  68 SW3       30.00S
AUSTIN         SUNNY     66  63  88 S9        30.00S
ALBERT LEA     MOSUNNY   68  61  77 S7        29.99S
DODGE CENTER   MOSUNNY   66  63  88 S13       30.00R
PRESTON        SUNNY     64  60  86 S8        30.02S
OWATONNA       MOSUNNY   68  59  73 S10G16    29.98S
FARIBAULT      MOSUNNY   66  61  82 S6        29.97S
$$

...ELSEWHERE IN MINNESOTA...


CITY           SKY/WX    TMP DP  RH WIND       PRES   REMARKS
MINNEAPOLIS    CLOUDY    72  61  68 S8        29.94F
INTNL FALLS    CLOUDY    66  64  93 CALM      29.81R FOG
DULUTH         PTSUNNY   65  60  84 S12       29.92S HAZE
RED WING       SUNNY     70  61  73 S5        29.96S
REDWOOD FALLS  CLOUDY    70  62  76 S12       29.88F
MANKATO        PTSUNNY   66  59  77 S9        29.95F
WORTHINGTON    CLOUDY    66  61  82 SW10      29.96R
FAIRMONT       CLOUDY    66  57  72 S8        29.95S
$$

...SOUTHWEST WISCONSIN...


CITY           SKY/WX    TMP DP  RH WIND       PRES   REMARKS
LA CROSSE      SUNNY     69  62  78 S9        30.02R
PRAIRIE DU CHI SUNNY     65  60  83 SE3       30.03S
BOSCOBEL       FOG       63  62  97 N3        30.05S VSB 1/4
LONE ROCK      NOT AVBL
PLATTEVILLE    SUNNY     65  63  93 SE7       30.06S
FORT MC COY    SUNNY     63  59  88 CALM      30.03S
VIROQUA        FAIR      66  62  86 S6        30.05R
WIS DELLS      SUNNY     65  61  86 S5        30.06S
$$

...ELSEWHERE IN WISCONSIN...


CITY           SKY/WX    TMP DP  RH WIND       PRES   REMARKS
MILWAUKEE      MOSUNNY   71  60  68 SW7       30.08S
MADISON        SUNNY     70  62  76 S3        30.07R
GREEN BAY      SUNNY     69  65  86 S5        30.05S FOG
EAU CLAIRE     NOT AVBL
BLACK RVR FLS  FAIR      63  63 100 CALM      30.02R
MEDFORD        SUNNY     64  62  93 S6        30.03F
WAUSAU         MOSUNNY   68  62  81 S7        30.02F
WIS RAPIDS     SUNNY     68  61  78 SW5       30.06R
MARSHFIELD     SUNNY     66  61  84 S7        30.03F
RICE LAKE      NOT AVBL
$$

...NORTHEAST IOWA...


CITY           SKY/WX    TMP DP  RH WIND       PRES   REMARKS
DECORAH          N/A    N/A N/A N/A MISG        N/A
MASON CITY     MOSUNNY   66  62  87 S7        30.02R
CHARLES CITY   SUNNY     64  64 100 S7        30.03R
OELWEIN          N/A    N/A N/A N/A MISG        N/A
$$

...ELSEWHERE IN IOWA...


CITY           SKY/WX    TMP DP  RH WIND       PRES   REMARKS
DES MOINES     CLOUDY    69  62  78 S8        29.99R
IOWA CITY      SUNNY     66  63  90 CALM      30.05R FOG
FORT DODGE     PTSUNNY   70  61  73 S8        29.99S
$$

...NORTHERN ILLINOIS...


CITY           SKY/WX    TMP DP  RH WIND       PRES   REMARKS
CHICAGO-OHARE  SUNNY     69  60  73 W3        30.09R FOG
CHICAGO-MIDWAY SUNNY     73  62  68 W5        30.09R
MOLINE         SUNNY     69  63  81 CALM      30.05S HAZE
ROCKFORD       SUNNY     67  61  81 CALM      30.09S
PEORIA         SUNNY     71  63  75 SE5       30.08R
$$

NOTE: "FAIR" INDICATES FEW OR NO CLOUDS BELOW 12,000 FEET WITH NO
SIGNIFICANT WEATHER AND/OR OBSTRUCTIONS TO VISIBILITY. WIND
SPEEDS ARE IN MILES-PER-HOUR.



USA.gov is the U.S. government's official web portal to all federal, state and local government web resources and services.